Location: TAAA CAC
(31.8680°N, 109.5150°W)
Time: 20:38:37
(UTC-07:00)

Hubble Space Telescope - Pass Details

Date: 13 March 2026
Orbit: 474 x 477 km, 28.5° (Epoch: 20 April)

Event Time Altitude Azimuth Distance (km) Brightness Sun altitude
Rises 20:14:23 0° 266° (W) 2,504 5.4 -23.9°
Reaches altitude 10° 20:16:38 10° 260° (W) 1,626 4.1 -24.4°
Enters shadow 20:19:07 34° 233° (SW) 795 1.9 -24.9°
